GW4439 Weather Reports


time (UTC)temp
C
wind
direction
speed
KPH
gust
KPH
rain 1hr
cm
rain 24hr
cm
rain mn
cm
humidity
%
barometer
mb
20260906072257 22 280 0.0 0.0 0.00 0.00 0.00 99 1011.6
20260906071753 22 274 0.0 0.0 0.00 0.00 0.00 99 1011.5
20260906071253 22 257 0.0 0.0 0.00 0.00 0.00 99 1011.4
20260906070749 22 239 3.2 4.8 0.00 0.00 0.00 99 1011.6
20260906070245 22 254 0.0 0.0 0.00 0.00 0.00 99 1011.4
20260906065744 22 263 0.0 0.0 0.00 0.00 0.00 99 1011.4
20260906065240 22 298 0.0 0.0 0.00 0.00 0.00 99 1011.4
20260906064735 22 259 0.0 0.0 0.00 0.00 0.00 99 1011.5
20260906064231 22 256 0.0 0.0 0.00 0.00 0.00 99 1011.3
20260906063726 22 256 0.0 0.0 0.00 0.00 0.00 99 1011.6
20260906063221 22 251 0.0 0.0 0.00 0.00 0.00 99 1011.7
20260906062716 22 259 0.0 0.0 0.00 0.00 0.00 99 1011.8
20260906062215 22 260 0.0 0.0 0.00 0.00 0.00 99 1012.0
20260906061712 22 259 0.0 0.0 0.00 0.00 0.00 99 1011.8
20260906061208 22 259 0.0 0.0 0.00 0.00 0.00 99 1011.9
20260906060703 22 260 0.0 0.0 0.00 0.00 0.00 99 1012.0
20260906060200 22 259 0.0 0.0 0.00 0.00 0.00 99 1012.2
20260906055655 22 260 0.0 0.0 0.00 0.00 0.00 99 1012.2
20260906055150 22 238 0.0 0.0 0.00 0.00 0.00 99 1012.2
20260906054646 22 241 0.0 0.0 0.00 0.00 0.00 99 1012.5
20260906054140 22 276 0.0 0.0 0.00 0.00 0.00 99 1012.5
20260906053637 22 255 0.0 0.0 0.00 0.00 0.00 99 1012.6
20260906053131 22 255 0.0 0.0 0.00 0.00 0.00 99 1012.9
20260906052627 22 255 0.0 0.0 0.00 0.00 0.00 99 1012.9
20260906052124 22 234 0.0 0.0 0.00 0.00 0.00 99 1013.0
20260906051620 22 237 0.0 0.0 0.00 0.00 0.00 99 1012.8
20260906051114 22 281 0.0 0.0 0.00 0.00 0.00 99 1013.0
20260906050610 22 267 0.0 0.0 0.00 0.00 0.00 99 1012.9
20260906050105 22 267 0.0 0.0 0.00 0.00 0.00 99 1012.9
20260906045603 22 267 0.0 0.0 0.00 0.00 0.00 99 1012.9
20260906045059 22 268 0.0 0.0 0.00 0.00 0.00 99 1012.8
20260906044554 23 243 0.0 0.0 0.00 0.00 0.00 98 1012.9
20260906044049 23 261 0.0 0.0 0.00 0.00 0.00 99 1013.0
20260906043545 23 260 0.0 0.0 0.00 0.00 0.00 98 1012.9
20260906043041 23 278 0.0 0.0 0.00 0.00 0.00 98 1012.9
20260906042539 23 82 0.0 0.0 0.00 0.00 0.00 99 1013.1
20260906042034 23 257 0.0 0.0 0.00 0.00 0.00 99 1013.1
20260906041531 23 262 0.0 0.0 0.00 0.00 0.00 99 1012.8
20260906041031 23 263 0.0 0.0 0.00 0.00 0.00 99 1013.0
20260906040521 23 263 0.0 0.0 0.00 0.00 0.00 99 1012.8
20260906040016 23 263 0.0 0.0 0.00 0.00 0.00 99 1013.1
20260906035511 23 263 0.0 0.0 0.00 0.00 0.00 99 1013.2
20260906035006 23 263 0.0 0.0 0.00 0.00 0.00 98 1013.0
20260906034501 23 263 0.0 0.0 0.00 0.00 0.00 98 1012.7
20260906033956 23 285 0.0 0.0 0.00 0.00 0.00 98 1012.8
20260906033450 23 269 0.0 0.0 0.00 0.00 0.00 98 1013.2
20260906032946 23 253 0.0 0.0 0.00 0.00 0.00 97 1012.9
20260906032442 23 253 0.0 0.0 0.00 0.00 0.00 97 1012.9
20260906031937 23 244 0.0 0.0 0.00 0.00 0.00 97 1012.8
20260906031432 23 257 0.0 0.0 0.00 0.00 0.00 97 1012.9
20260906030927 23 255 0.0 0.0 0.00 0.00 0.00 97 1012.9
20260906030422 23 247 0.0 0.0 0.00 0.00 0.00 96 1012.9
20260906025916 24 276 1.6 1.6 0.00 0.00 0.00 96 1012.7
20260906025411 24 277 6.4 9.7 0.00 0.00 0.00 95 1012.9
20260906024910 23 173 0.0 0.0 0.00 0.00 0.00 98 1012.9
20260906024409 23 281 0.0 0.0 0.00 0.00 0.00 97 1012.7
20260906023904 23 271 0.0 0.0 0.00 0.00 0.00 97 1012.7
20260906023401 23 232 0.0 0.0 0.00 0.00 0.00 97 1012.7
20260906022901 23 236 0.0 0.0 0.00 0.00 0.00 98 1012.8
20260906022355 23 243 0.0 0.0 0.00 0.00 0.00 98 1012.8
20260906021851 23 267 0.0 0.0 0.00 0.00 0.00 97 1012.7
20260906021350 23 275 0.0 0.0 0.00 0.00 0.00 97 1012.7
20260906020845 23 274 0.0 0.0 0.00 0.00 0.00 97 1012.8
20260906020345 23 274 0.0 0.0 0.00 0.00 0.00 97 1012.8
20260906015839 24 274 0.0 0.0 0.00 0.00 0.00 97 1012.7
20260906015338 24 274 0.0 0.0 0.00 0.00 0.00 96 1012.7
20260906014833 24 274 1.6 1.6 0.00 0.00 0.00 96 1012.9
20260906014328 24 273 0.0 0.0 0.00 0.00 0.00 96 1012.9
20260906013824 24 274 0.0 1.6 0.00 0.00 0.00 96 1012.9
20260906013319 24 3 1.6 1.6 0.00 0.00 0.00 96 1013.0
20260906012815 24 271 0.0 0.0 0.00 0.00 0.00 95 1012.7
20260906012314 25 261 0.0 0.0 0.00 0.00 0.00 95 1012.7
20260906011809 25 247 0.0 0.0 0.00 0.00 0.00 95 1012.7
20260906011304 25 270 0.0 0.0 0.00 0.00 0.00 93 1012.5
20260906010800 25 268 1.6 1.6 0.00 0.00 0.00 92 1012.6
20260906010256 25 153 4.8 6.4 0.00 0.00 0.00 92 1012.1
20260906005751 25 219 0.0 0.0 0.00 0.00 0.00 92 1012.1
20260906005250 25 216 3.2 3.2 0.00 0.00 0.00 92 1012.2
20260906004749 25 266 0.0 0.0 0.00 0.00 0.00 93 1012.0
20260906004244 25 282 1.6 1.6 0.00 0.00 0.00 92 1011.9
20260906003739 25 257 0.0 0.0 0.00 0.00 0.00 90 1011.9
20260906003235 25 216 0.0 0.0 0.00 0.00 0.00 91 1012.0
20260906002734 25 246 0.0 0.0 0.00 0.00 0.00 90 1011.9
20260906002229 25 234 3.2 4.8 0.00 0.00 0.00 90 1011.9
20260906001724 25 270 0.0 0.0 0.00 0.00 0.00 90 1011.9
20260906001219 26 288 0.0 0.0 0.00 0.00 0.00 87 1011.7
20260906000715 26 295 0.0 0.0 0.00 0.00 0.00 86 1011.7
20260906000212 26 235 0.0 0.0 0.00 0.00 0.00 85 1011.8
20260905235709 26 196 0.0 0.0 0.00 0.00 0.00 84 1011.6
20260905235204 26 242 3.2 3.2 0.00 0.00 0.00 83 1011.7
20260905234659 27 252 4.8 4.8 0.00 0.00 0.00 83 1011.8
20260905234155 26 208 3.2 3.2 0.00 0.00 0.00 83 1011.7
20260905233650 26 220 0.0 0.0 0.00 0.00 0.00 85 1011.7
20260905233149 26 270 0.0 0.0 0.00 0.00 0.00 85 1011.7
20260905232644 26 268 0.0 0.0 0.00 0.00 0.00 84 1011.8
20260905232140 26 256 0.0 0.0 0.00 0.00 0.00 83 1011.6
20260905231635 26 264 0.0 0.0 0.00 0.00 0.00 84 1011.8
20260905231132 27 274 0.0 0.0 0.00 0.00 0.00 84 1011.7
20260905230627 27 248 0.0 0.0 0.00 0.00 0.00 81 1011.8
20260905230125 27 207 1.6 3.2 0.00 0.00 0.00 81 1011.8
20260905225624 27 206 0.0 0.0 0.00 0.00 0.00 80 1011.5
20260905225114 26 266 0.0 0.0 0.00 0.00 0.00 83 1011.6
20260905224614 27 279 1.6 3.2 0.00 0.00 0.00 82 1011.6
20260905224113 27 261 0.0 0.0 0.00 0.00 0.00 82 1011.9
20260905223610 26 266 0.0 0.0 0.00 0.00 0.00 82 1011.8
20260905223107 27 283 3.2 3.2 0.00 0.00 0.00 84 1011.9
20260905222606 27 250 1.6 1.6 0.00 0.00 0.00 80 1011.7
20260905222102 27 233 3.2 3.2 0.00 0.00 0.00 80 1011.7
20260905221558 27 188 1.6 3.2 0.00 0.00 0.00 80 1011.9
20260905221054 27 233 0.0 0.0 0.00 0.00 0.00 79 1011.8
20260905220549 27 238 0.0 0.0 0.00 0.00 0.00 80 1011.8
20260905220045 27 246 1.6 3.2 0.00 0.00 0.00 80 1011.7
20260905215544 27 200 4.8 4.8 0.00 0.00 0.00 81 1011.8
20260905215041 27 217 4.8 4.8 0.00 0.00 0.00 81 1011.8
20260905214537 26 259 1.6 1.6 0.00 0.00 0.00 81 1011.8
20260905214037 26 274 6.4 6.4 0.00 0.00 0.00 82 1011.7
20260905213532 26 55 3.2 4.8 0.00 0.00 0.00 83 1011.4
20260905213027 26 279 3.2 3.2 0.00 0.00 0.00 84 1011.5
20260905212522 26 282 6.4 9.7 0.00 0.00 0.00 82 1011.5
20260905212021 26 295 6.4 9.7 0.00 0.00 0.00 83 1011.7
20260905211517 26 308 6.4 9.7 0.00 0.00 0.00 82 1011.7
20260905211013 26 286 6.4 6.4 0.00 0.00 0.00 85 1011.7
20260905210508 26 311 3.2 3.2 0.00 0.00 0.00 86 1011.4
20260905210008 27 266 3.2 3.2 0.00 0.00 0.00 82 1011.8
20260905205502 27 253 3.2 3.2 0.00 0.00 0.00 76 1011.9
20260905205001 28 283 4.8 4.8 0.00 0.00 0.00 73 1012.4
20260905204456 29 266 1.6 1.6 0.00 0.00 0.00 69 1012.0
20260905203956 30 258 4.8 6.4 0.00 0.00 0.00 65 1012.0
20260905203451 30 290 9.7 11.3 0.00 0.00 0.00 63 1012.4
20260905202947 31 296 9.7 12.9 0.00 0.00 0.00 62 1012.1
20260905202442 31 270 6.4 6.4 0.00 0.00 0.00 62 1012.0
20260905201937 31 296 6.4 9.7 0.00 0.00 0.00 61 1011.8
20260905201432 32 344 8.0 9.7 0.00 0.00 0.00 60 1011.6
20260905200927 32 334 6.4 6.4 0.00 0.00 0.00 60 1011.5
20260905200423 33 265 0.0 0.0 0.00 0.00 0.00 56 1011.6
20260905195921 33 71 0.0 0.0 0.00 0.00 0.00 54 1011.2
20260905195416 33 270 0.0 0.0 0.00 0.00 0.00 54 1011.2
20260905194912 33 283 0.0 0.0 0.00 0.00 0.00 55 1011.6
20260905194411 34 356 0.0 1.6 0.00 0.00 0.00 51 1011.5
20260905193906 35 263 0.0 0.0 0.00 0.00 0.00 51 1011.5
20260905193400 35 268 0.0 0.0 0.00 0.00 0.00 50 1011.4
20260905192856 35 1 1.6 1.6 0.00 0.00 0.00 48 1011.2
20260905192351 35 260 0.0 0.0 0.00 0.00 0.00 49 1011.3
20260905191851 35 253 0.0 0.0 0.00 0.00 0.00 51 1011.4
20260905191350 35 187 0.0 0.0 0.00 0.00 0.00 51 1011.5
20260905190849 35 4 1.6 1.6 0.00 0.00 0.00 51 1011.5
20260905190348 35 67 3.2 4.8 0.00 0.00 0.00 50 1011.3
20260905185847 36 107 3.2 4.8 0.00 0.00 0.00 49 1011.4
20260905185342 37 251 0.0 1.6 0.00 0.00 0.00 45 1011.4
20260905184841 37 235 0.0 0.0 0.00 0.00 0.00 43 1011.3
20260905184341 37 278 4.8 4.8 0.00 0.00 0.00 43 1011.3
20260905183839 37 222 1.6 3.2 0.00 0.00 0.00 43 1011.4
20260905183335 36 258 0.0 1.6 0.00 0.00 0.00 44 1011.5
20260905182829 36 227 4.8 4.8 0.00 0.00 0.00 42 1011.6
20260905182323 36 92 1.6 3.2 0.00 0.00 0.00 45 1011.7
20260905181819 35 63 6.4 9.7 0.00 0.00 0.00 46 1011.7
20260905181313 35 48 3.2 3.2 0.00 0.00 0.00 48 1011.9
20260905180812 36 280 4.8 6.4 0.00 0.00 0.00 48 1012.0
20260905180307 36 253 0.0 0.0 0.00 0.00 0.00 47 1012.1
20260905175802 36 265 0.0 0.0 0.00 0.00 0.00 48 1012.1
20260905175257 36 80 6.4 6.4 0.00 0.00 0.00 48 1012.5
20260905174752 35 190 1.6 3.2 0.00 0.00 0.00 47 1012.5
20260905174248 35 34 4.8 6.4 0.00 0.00 0.00 49 1012.7
20260905173743 35 69 9.7 11.3 0.00 0.00 0.00 50 1012.7
20260905173238 35 252 0.0 0.0 0.00 0.00 0.00 51 1012.8
20260905172732 35 281 0.0 1.6 0.00 0.00 0.00 51 1012.9
20260905172227 35 237 3.2 4.8 0.00 0.00 0.00 51 1012.9
20260905171723 35 242 9.7 11.3 0.00 0.00 0.00 52 1012.9
20260905171219 35 224 11.3 14.5 0.00 0.00 0.00 53 1012.7
20260905170715 35 206 1.6 1.6 0.00 0.00 0.00 52 1013.1
20260905170216 34 234 4.8 6.4 0.00 0.00 0.00 54 1013.1
20260905165715 35 231 1.6 4.8 0.00 0.00 0.00 54 1013.3
20260905165211 34 17 3.2 3.2 0.00 0.00 0.00 55 1013.5
20260905164710 34 310 9.7 11.3 0.00 0.00 0.00 55 1013.4
20260905164205 34 317 9.7 11.3 0.00 0.00 0.00 55 1013.6
20260905163701 34 260 3.2 3.2 0.00 0.00 0.00 57 1013.8
20260905163157 34 239 1.6 3.2 0.00 0.00 0.00 56 1013.6
20260905162653 34 258 0.0 0.0 0.00 0.00 0.00 57 1013.9
20260905162152 33 239 6.4 9.7 0.00 0.00 0.00 57 1013.9
20260905161647 33 278 1.6 3.2 0.00 0.00 0.00 57 1013.8
20260905161144 33 261 1.6 1.6 0.00 0.00 0.00 58 1013.9
20260905160639 32 296 1.6 3.2 0.00 0.00 0.00 60 1014.0
20260905160138 33 227 6.4 6.4 0.00 0.00 0.00 60 1013.8
20260905155633 33 245 3.2 3.2 0.00 0.00 0.00 59 1014.0
20260905155131 33 288 6.4 11.3 0.00 0.00 0.00 59 1013.8
20260905154626 33 271 3.2 3.2 0.00 0.00 0.00 60 1013.9
20260905154122 33 281 6.4 6.4 0.00 0.00 0.00 58 1014.1
20260905153617 32 286 8.0 9.7 0.00 0.00 0.00 63 1014.0
20260905153113 32 223 8.0 9.7 0.00 0.00 0.00 63 1014.0
20260905152608 32 249 8.0 11.3 0.00 0.00 0.00 62 1014.3
20260905152102 32 237 4.8 4.8 0.00 0.00 0.00 63 1014.2
20260905151557 31 212 11.3 12.9 0.00 0.00 0.00 65 1014.3
20260905151052 32 228 6.4 11.3 0.00 0.00 0.00 64 1014.2
20260905150548 32 220 3.2 6.4 0.00 0.00 0.00 66 1014.3
20260905150045 31 301 3.2 4.8 0.00 0.00 0.00 65 1014.3
20260905145539 31 243 4.8 4.8 0.00 0.00 0.00 66 1014.2
20260905145038 31 242 3.2 4.8 0.00 0.00 0.00 68 1014.4
20260905144533 30 294 4.8 6.4 0.00 0.00 0.00 70 1014.3
20260905144032 31 257 1.6 3.2 0.00 0.00 0.00 68 1014.6
20260905143531 31 286 3.2 4.8 0.00 0.00 0.00 71 1014.4
20260905143026 30 265 6.4 6.4 0.00 0.00 0.00 71 1014.7
20260905142526 30 247 3.2 3.2 0.00 0.00 0.00 72 1014.5
20260905142021 30 242 4.8 4.8 0.00 0.00 0.00 74 1014.5
20260905141521 30 285 9.7 11.3 0.00 0.00 0.00 72 1014.7
20260905141018 30 300 4.8 4.8 0.00 0.00 0.00 74 1014.7
20260905140512 29 295 4.8 6.4 0.00 0.00 0.00 75 1014.8
20260905140011 29 312 6.4 6.4 0.00 0.00 0.00 74 1014.6
20260905135507 28 255 6.4 9.7 0.00 0.00 0.00 76 1014.7
20260905135002 28 284 8.0 9.7 0.00 0.00 0.00 77 1014.8
20260905134501 28 235 4.8 4.8 0.00 0.00 0.00 77 1014.5
20260905134000 28 240 4.8 6.4 0.00 0.00 0.00 78 1014.6
20260905133456 28 238 3.2 4.8 0.00 0.00 0.00 79 1014.6
20260905132955 28 256 4.8 4.8 0.00 0.00 0.00 80 1014.4
20260905132450 27 248 3.2 3.2 0.00 0.00 0.00 81 1014.7
20260905131945 27 250 6.4 6.4 0.00 0.00 0.00 81 1014.8
20260905131442 27 235 6.4 9.7 0.00 0.00 0.00 83 1014.6
20260905130942 27 237 6.4 9.7 0.00 0.00 0.00 83 1014.6
20260905130435 27 243 4.8 4.8 0.00 0.00 0.00 84 1014.7
20260905125935 27 263 6.4 6.4 0.00 0.00 0.00 84 1014.9
20260905125430 26 222 4.8 4.8 0.00 0.00 0.00 86 1014.8
20260905124925 26 239 0.0 1.6 0.00 0.00 0.00 86 1014.9
20260905124422 26 257 1.6 1.6 0.00 0.00 0.00 85 1014.9
20260905123921 26 244 3.2 3.2 0.00 0.00 0.00 86 1014.7
20260905123418 26 224 3.2 3.2 0.00 0.00 0.00 87 1014.7
20260905122914 26 236 1.6 3.2 0.00 0.00 0.00 88 1014.6
20260905122413 26 251 3.2 3.2 0.00 0.00 0.00 88 1014.5
20260905121908 26 251 0.0 0.0 0.00 0.00 0.00 88 1014.7
20260905121404 25 239 0.0 0.0 0.00 0.00 0.00 89 1014.6
20260905120904 25 230 0.0 0.0 0.00 0.00 0.00 90 1014.6
20260905120403 25 228 1.6 3.2 0.00 0.00 0.00 91 1014.5
20260905115858 25 231 1.6 1.6 0.00 0.00 0.00 91 1014.6
20260905115358 25 247 1.6 1.6 0.00 0.00 0.00 92 1014.6
20260905114852 24 240 1.6 1.6 0.00 0.00 0.00 93 1014.5
20260905114346 24 230 1.6 1.6 0.00 0.00 0.00 93 1014.3
20260905113840 24 241 1.6 3.2 0.00 0.00 0.00 93 1014.2
20260905113336 24 232 1.6 1.6 0.00 0.00 0.00 94 1014.1
20260905112831 23 246 1.6 1.6 0.00 0.00 0.00 95 1014.1
20260905112326 23 235 1.6 3.2 0.00 0.00 0.00 95 1014.1
20260905111821 23 236 3.2 4.8 0.00 0.00 0.00 95 1014.0
20260905111320 23 231 0.0 0.0 0.00 0.00 0.00 95 1014.2
20260905110820 23 245 0.0 0.0 0.00 0.00 0.00 95 1014.1
20260905110313 23 248 0.0 0.0 0.00 0.00 0.00 95 1014.0
20260905105809 23 244 0.0 0.0 0.00 0.00 0.00 95 1013.9
20260905105308 23 232 0.0 0.0 0.00 0.00 0.00 95 1013.9
20260905104802 23 238 0.0 0.0 0.00 0.00 0.00 95 1013.9
20260905104259 23 233 0.0 0.0 0.00 0.00 0.00 95 1013.7
20260905103758 23 253 0.0 0.0 0.00 0.00 0.00 95 1013.7
20260905103254 23 251 0.0 0.0 0.00 0.00 0.00 95 1013.7
20260905102750 23 241 0.0 0.0 0.00 0.00 0.00 95 1013.8
20260905102247 23 245 0.0 0.0 0.00 0.00 0.00 95 1013.7
20260905101746 23 238 0.0 0.0 0.00 0.00 0.00 95 1013.7
20260905101244 23 235 1.6 1.6 0.00 0.00 0.00 94 1013.6
20260905100740 23 236 1.6 1.6 0.00 0.00 0.00 95 1013.8
20260905100236 23 247 0.0 0.0 0.00 0.00 0.00 95 1013.7
20260905095735 23 228 3.2 3.2 0.00 0.00 0.00 94 1013.7
20260905095235 23 245 0.0 0.0 0.00 0.00 0.00 94 1013.5
20260905094730 23 236 1.6 3.2 0.00 0.00 0.00 94 1013.6
20260905094225 23 231 1.6 1.6 0.00 0.00 0.00 94 1013.5
20260905093724 23 226 1.6 1.6 0.00 0.00 0.00 94 1013.5
20260905093220 24 233 0.0 0.0 0.00 0.00 0.00 93 1013.6
20260905092716 24 240 1.6 3.2 0.00 0.00 0.00 93 1013.6
20260905092211 24 228 1.6 1.6 0.00 0.00 0.00 93 1013.7
20260905091710 24 230 4.8 4.8 0.00 0.00 0.00 92 1013.6
20260905091205 24 230 0.0 0.0 0.00 0.00 0.00 92 1013.6
20260905090659 24 233 0.0 0.0 0.00 0.00 0.00 92 1013.6
20260905090155 24 236 0.0 0.0 0.00 0.00 0.00 93 1013.6
20260905085654 23 233 0.0 0.0 0.00 0.00 0.00 93 1013.6
20260905085149 23 249 0.0 0.0 0.00 0.00 0.00 97 1013.7
20260905084648 23 259 0.0 0.0 0.00 0.00 0.00 97 1013.6
20260905084143 23 260 0.0 0.0 0.00 0.00 0.00 96 1013.7
20260905083638 23 260 0.0 0.0 0.00 0.00 0.00 96 1013.8
20260905083135 23 260 0.0 0.0 0.00 0.00 0.00 96 1013.7
20260905082630 23 260 0.0 0.0 0.00 0.00 0.00 96 1013.8
20260905082125 23 260 0.0 0.0 0.00 0.00 0.00 96 1014.0
20260905081620 23 260 0.0 0.0 0.00 0.00 0.00 95 1014.0
20260905081114 23 261 0.0 0.0 0.00 0.00 0.00 94 1013.8
20260905080609 24 247 0.0 0.0 0.00 0.00 0.00 93 1013.9
20260905080108 23 254 0.0 0.0 0.00 0.00 0.00 95 1013.9
20260905075607 23 255 0.0 0.0 0.00 0.00 0.00 94 1014.0
20260905075102 23 250 0.0 0.0 0.00 0.00 0.00 95 1014.0
20260905074601 23 252 0.0 0.0 0.00 0.00 0.00 94 1013.9
20260905074057 23 254 0.0 0.0 0.00 0.00 0.00 95 1013.9
20260905073553 23 255 0.0 0.0 0.00 0.00 0.00 94 1013.8
20260905073048 23 255 0.0 0.0 0.00 0.00 0.00 94 1013.8